www.pogodaiklimat.ru

Погода и климат >> Архив погоды >> Боливия >> Concepcion


ПОГОДА в Concepcion

  • Прогноз погоды в Concepcion
  • Монитор погоды в Concepcion
  • Климат города

АРХИВ ПОГОДЫ в Concepcion

Время (UTC), дата Ветер
(напр.,м/с)
 
Видим.   Явления Облачность Т
(С)
Тd
(С)
f
(%)
Тe
(С)
Тes
(С)
Комфортность P
(гПа)
Po
(гПа)
Тmin
(С)
Tmax
(С)
R
(мм)
R24
(мм)
S
(см)
12 16.01 штиль 0 30 км 10/5 750 м
[Sc As op]
+22.0 +21.9 99 +29 +30 очень
душно
1015.9 957.4 +20.0
15 16.01 СЗ 2 30 км 8/3 400 м
[Sc Ac trans]
+27.0 +23.6 82 +37 +45 очень
душно
1016.9 958.4
18 16.01 С 3 30 км 6/6 500 м
[Cu Sc]
+30.0 +23.3 67 +40 +47 очень
душно
1014.3 955.8
21 16.01 СЗ 5 30 км 5/4 500 м
[Cb cap Ci sp]
+29.0 +22.1 66 +37 +38 очень
душно
1011.7 953.2 +31.0
12 17.01 штиль 0 30 км 6/0 2000 м
[Ac trans]
+23.0 +22.3 96 +31 +37 очень
душно
1015.6 957.1 +21.0
15 17.01 СЗ 8 5000 м гроза, ливневой дождь 10/9 360 м
[Cb cap As op]
+23.5 +22.8 96 +31 +31 очень
душно
1016.9 958.4
18 17.01 С 3 30 км {гроза, дождь} 9/5 360 м
[Cb cap Ci ing]
+24.0 +21.2 84 +30 +36 очень
душно
1014.7 956.2 2
21 17.01 С 3 30 км 8/5 450 м
[Cb cap Ci ing]
+27.0 +21.4 71 +34 +35 очень
душно
1012.0 953.6 +28.2
12 18.01 штиль 0 30 км 9/3 240 м
[Sc Ac trans]
+23.0 +22.3 96 +31 +34 очень
душно
1016.3 957.8 +21.0 2
15 18.01 СЗ 3 30 км 5/5 400 м
[Sc]
+28.0 +24.0 79 +39 +47 очень
душно
1016.5 958.0
18 18.01 С 4 30 км 6/6 500 м
[Cu med, cong]
+30.0 +23.3 67 +40 +45 очень
душно
1014.6 956.1
21 18.01 СЗ 3 30 км 4/4 500 м
[Cb cap]
+29.0 +23.6 73 +40 +41 очень
душно
1011.7 953.2 +31.0
12 19.01 штиль 0 30 км 8/0
[Ci sp]
+25.0 +23.6 92 +34 +41 очень
душно
1016.5 958.2 +21.0
15 19.01 штиль 0 30 км 8/8 500 м
[Cu med, cong]
+28.0 +22.5 72 +37 +42 очень
душно
1016.7 958.3
18 19.01 С 7 30 км гроза без осадков туман 9/9 500 м
[Cb cap]
+27.0 +22.9 78 +36 +36 очень
душно
1014.9 956.4
21 19.01 штиль 0 30 км {гроза} 8/6 500 м
[Cb cap Ci ing]
+26.0 +23.2 85 +35 +36 очень
душно
1012.5 953.9 +31.0
12 20.01 штиль 0 5000 м гроза, ливневой дождь 10/9 210 м
[Cb cap As op]
+21.2 +20.9 98 +27 +27 душно 1016.3 957.8 +19.0 10
15 20.01 С 4 30 км {гроза, дождь} 6/0 2000 м
[Ac trans Ci sp]
+27.0 +22.9 78 +36 +46 очень
душно
1015.6 957.1
18 20.01 С 5 30 км 8/8 500 м
[Cu med, cong]
+29.7 +21.4 61 +38 +39 очень
душно
1013.5 955.1 2
21 20.01 С 4 30 км 5/5 500 м
[Cu med, cong]
+31.0 +21.4 57 +39 +40 очень
душно
1010.4 951.6 +32.0
12 21.01 штиль 0 30 км 6/0
[Ci sp]
+22.5 +21.8 96 +30 +37 очень
душно
1014.4 956.2 +21.5 2
15 21.01 СЗ 4 30 км 4/4 500 м
[Cu med, cong]
+28.5 +22.8 71 +38 +46 очень
душно
1014.3 956.1
18 21.01 С 5 30 км 8/8 500 м
[Cu med, cong]
+30.7 +23.1 64 +41 +43 опасность
перегрева
1012.0 953.5
21 21.01 С 3 30 км 6/4 500 м
[Cu med, cong Ci sp]
+28.0 +24.0 79 +39 +40 очень
душно
1009.4 951.1 +32.0
12 22.01 С 3 30 км 4/4 240 м
[Sc]
+23.0 +22.3 96 +31 +34 очень
душно
1012.7 954.2 +21.0 2
15 22.01 СЗ 8 30 км 4/4 400 м
[Sc]
+28.0 +22.5 72 +37 +39 очень
душно
1013.3 954.8
18 22.01 СЗ 5 30 км осадки на расстоянии 8/8 500 м
[Cu med, cong]
+30.0 +23.3 67 +40 +42 очень
душно
1011.0 952.5
21 22.01 С 3 30 км 3/3 500 м
[Cu med, cong]
+31.0 +23.4 64 +42 +43 опасность
перегрева
1007.3 949.2 +32.0

 

Местоположение метеостанции Concepcion (Боливия): широта -16.14 долгота -62.01 высота над уровнем моря 497 м.

В архиве по умолчанию представлена погода в Concepcion за последнюю неделю. Архивные данные за месяц целиком и за предыдущие месяцы, начиная с января 2011 года, Вы можете получить, выбрав интересующий диапазон дат из раскрывающегося списка и нажав кнопку "Ввод!".

Внимание! Время в таблицах - всемирное. Для получения местного времени необходимо прибавить поправку, которая в Concepcion равна -4 ч.

Смотрите также архив погоды в соседних городах и на ближайших метеорологических станциях:

Погода в San Javier (Боливия) (50 км)
Погода в San Ignacio De Velasco (Боливия) (115 км)
Погода в Ascencion De Guaray (Боливия) (126 км)
Погода в Viru-Viru (Боливия) (204 км)
Погода в Santa Cruz (Боливия) (223 км)
Погода в San Jose De Chiquitos (Боливия) (229 км)
Погода в Vila Bela da S Trind (Бразилия) (258 км)
Погода в Pontes E Lacerda (Бразилия) (302 км)
Погода в Vallegrande (Боливия) (340 км)
Погода в Robore (Боливия) (340 км)

Пояснения к столбцам:

Ветер - указаны скорость ветра в м/с - средняя за 10 мин, порывы в срок и между сроками (в фигурных скобках) и направление, откуда дует ветер: С - северный, СВ - северо-восточный, В - восточный, ЮВ - юго-восточный, Ю - южный, ЮЗ - юго-западный, З - западный, СЗ - северо-западный.
Видимость - горизонтальная дальность видимости в метрах или километрах. При видимости от 1 до 10 км при отсутствии осадков обычно наблюдается дымка, при ухудшении видимости до 1 км и менее - туман. В сухую погоду видимость может ухудшаться дымом, пылью или мглою.
Явления - указаны атмосферные явления, наблюдавшиеся в срок или в последний час перед сроком; фигурными скобками обозначены явления, наблюдавшиеся между сроками (за 1-3 часа до срока); квадратными скобками обозначены град или гололедные отложения с указанием их диаметра в мм.
Облачность - указаны через наклонную черту общая и нижняя облачность в баллах и высота нижней границы облаков в метрах; квадратными скобками обозначены формы облаков: Ci - перистые, Cs - перисто-слоистые, Cc - перисто-кучевые, Ac - высококучевые, As - высокослоистые, Sc - слоисто-кучевые, Ns - слоисто-дождевые, Cu - кучевые, Cb - кучево-дождевые. Подробнее классификацию облаков см. в Атласе облаков (PDF).
T - Температура воздуха - температура, измеренная на высоте 2 м над землей.
Td - Температура точки росы - температура, при понижении до которой содержащийся в воздухе водяной пар достигнет насыщения.
f - Относительная влажность воздуха - влажноcть воздуха, измеренная на высоте 2 м над землей.
Te - Эффективная температура - температура, которую ощущает одетый по сезону человек в тени. Характеристика душности погоды. При расчете учитывается влияние влажности воздуха и скорости ветра на теплоощущения человека.
Tes - Эффективная температура на солнце - температура, которую ощущает человек, с поправкой на солнечный нагрев. Характеристика знойности погоды. Зависит от высоты солнца над горизонтом, облачности и скорости ветра. Ночью, в пасмурную погоду, а также при ветре 12 м/с и более поправка равна нулю.
P - Атмосферное давление - приведенное к уровню моря атмосферное давление.
Po - Атмосферное давление - измеренное на уровне метеостанции атмосферное давление.
Tmin - Минимальная температура - минимум температуры воздуха на высоте 2 м над землей.
Tmax - Максимальная температура - максимум температуры воздуха на высоте 2 м над землей.
R - Количество осадков - Количество выпавших осадков за период времени, мм. При наведении курсора мыши на число - период времени, за который выпало указанное количество осадков.
R24 - Количество осадков - Количество выпавших осадков за 24 часа, мм.
S - Снежный покров - Высота снежного покрова, см. При наведении курсора мыши на число - состояние снежного покрова и степень покрытия местности в баллах.